Weather reports worldwide

Advertisment
Almondsbury, United Kingdom (3930): temperature & dewpoint: 30.07.2020 02:00:00 - 05.08.2020 02:00:00 (BST)Almondsbury, United Kingdom (3930): temperature -20cm & temperature -100cm: 30.07.2020 02:00:00 - 05.08.2020 02:00:00 (BST)Almondsbury, United Kingdom (3930): wind speed: 30.07.2020 02:00:00 - 05.08.2020 02:00:00 (BST)Almondsbury, United Kingdom (3930): wind direction: 30.07.2020 02:00:00 - 05.08.2020 02:00:00 (BST)Almondsbury, United Kingdom (3930): reduced air pressure: 30.07.2020 02:00:00 - 05.08.2020 02:00:00 (BST)Almondsbury, United Kingdom (3930): visibility: 30.07.2020 02:00:00 - 05.08.2020 02:00:00 (BST)Almondsbury, United Kingdom (3930): sunshine duration: 30.07.2020 02:00:00 - 05.08.2020 02:00:00 (BST)Almondsbury, United Kingdom (3930): precipitation: 30.07.2020 02:00:00 - 05.08.2020 02:00:00 (BST)
Date & Time tt [°C] td [°C] tt -20cm [°C] tt -100cm [°C] ff [km/h] ff [kn] dd ppp [hPa] vv [km] sd [min] rr [mm]
05.08.2020 02:00:00 17,1 13,9 - - 13 7 SSW 1011,9 65 0 0,0
05.08.2020 01:00:00 16,8 13,4 - - 15 8 S 1012,0 70 - 0,0
05.08.2020 00:00:00 17,0 13,2 - - 15 8 S 1012,6 70 0 0,0
04.08.2020 23:00:00 17,0 13,4 - - 11 6 S 1012,9 55 0 0,0
04.08.2020 22:00:00 17,5 13,1 - - 13 7 S 1013,1 70 0 0,0
04.08.2020 21:00:00 17,8 13,1 - - 21 11 SSW 1012,9 75 0 0,0
04.08.2020 20:00:00 17,7 13,4 - - 18 10 SSW 1013,1 75 0 0,0
04.08.2020 19:00:00 18,9 12,3 - - 22 12 SSW 1013,1 75 0 0,0
04.08.2020 18:00:00 19,3 12,4 - - 18 10 SSW 1013,6 75 0 0,0
04.08.2020 17:00:00 19,6 11,2 - - 22 12 SSW 1013,9 75 12 0,0
04.08.2020 16:00:00 20,2 11,4 - - 22 12 SSW 1014,5 75 18 0,0
04.08.2020 15:00:00 19,9 10,5 - - 18 10 SSW 1014,9 75 30 0,0
04.08.2020 14:00:00 17,7 10,0 - - 15 8 SSW 1015,9 75 0 0,0
04.08.2020 13:00:00 17,3 9,5 - - 15 8 SSW 1016,5 75 0 0,0
04.08.2020 12:00:00 16,1 9,5 - - 15 8 S 1016,9 75 0 0,0
04.08.2020 11:00:00 15,5 9,3 - - 13 7 SSW 1017,2 75 0 0,0
04.08.2020 10:00:00 15,2 9,6 17,7 16,9 11 6 SSW 1017,1 75 0 0,0
04.08.2020 09:00:00 14,6 9,1 - - 8 4 SSW 1017,4 75 0 0,0
04.08.2020 08:00:00 12,6 9,2 - - 4 2 ESE 1017,2 75 30 0,0
04.08.2020 07:00:00 9,9 9,8 - - 2 1 SE 1017,5 75 24 0,0
04.08.2020 06:00:00 6,7 6,1 - - 2 1 ESE 1017,6 60 0 0,0
04.08.2020 05:00:00 7,0 5,6 - - 0 0 N 1017,9 70 0 0,0
04.08.2020 04:00:00 7,4 6,9 - - 4 2 W 1018,2 75 0 0,0
04.08.2020 03:00:00 7,0 6,3 - - 2 1 SE 1018,3 75 0 0,0
04.08.2020 02:00:00 7,4 6,4 - - 4 2 WSW 1018,7 75 0 0,0
04.08.2020 01:00:00 9,0 6,8 - - 4 2 WSW 1019,0 75 - 0,0
04.08.2020 00:00:00 10,4 6,2 - - 8 4 WNW 1018,9 75 0 0,0
03.08.2020 23:00:00 10,1 6,1 - - 5 3 W 1018,8 75 0 0,0
03.08.2020 22:00:00 13,3 6,2 - - 5 3 W 1018,3 75 0 0,0
03.08.2020 21:00:00 14,8 6,3 - - 8 4 WNW 1017,8 75 12 0,0
03.08.2020 20:00:00 17,9 6,6 - - 15 8 W 1017,3 75 54 0,0
03.08.2020 19:00:00 17,5 7,5 - - 11 6 WSW 1016,8 75 18 0,0
03.08.2020 18:00:00 18,7 8,1 - - 11 6 WSW 1016,7 75 24 0,0
03.08.2020 17:00:00 19,9 7,4 - - 13 7 SW 1016,8 75 12 0,0
03.08.2020 16:00:00 18,0 9,6 - - 15 8 WSW 1016,9 75 6 0,0
03.08.2020 15:00:00 17,8 8,5 - - 9 5 W 1017,1 75 12 0,0
03.08.2020 14:00:00 18,6 6,5 - - 8 4 W 1017,1 75 0 0,0
03.08.2020 13:00:00 17,3 9,2 - - 13 7 W 1017,6 75 6 0,0
03.08.2020 12:00:00 17,0 10,5 - - 9 5 WSW 1017,5 75 12 0,0
03.08.2020 11:00:00 17,6 10,7 - - 13 7 WSW 1017,3 75 42 0,0
03.08.2020 10:00:00 16,6 11,0 18,0 16,9 9 5 NW 1017,4 75 60 0,0
03.08.2020 09:00:00 15,1 11,0 - - 5 3 W 1017,6 75 60 0,0
03.08.2020 08:00:00 13,7 11,2 - - 2 1 WNW 1017,1 75 54 0,0
03.08.2020 07:00:00 10,6 9,9 - - 2 1 SE 1017,0 75 0 0,0
03.08.2020 06:00:00 9,0 8,8 - - 0 0 N 1017,0 60 0 0,0
03.08.2020 05:00:00 9,3 8,7 - - 2 1 N 1016,7 75 0 0,0
03.08.2020 04:00:00 10,7 8,8 - - 5 3 W 1016,7 75 0 0,0
03.08.2020 03:00:00 11,1 8,9 - - 8 4 W 1016,7 75 0 0,0
03.08.2020 02:00:00 11,1 9,1 - - 9 5 W 1017,1 75 0 0,0
03.08.2020 01:00:00 12,1 9,0 - - 5 3 W 1017,2 75 - 0,0
03.08.2020 00:00:00 13,1 9,7 - - 9 5 W 1016,9 75 0 0,0
02.08.2020 23:00:00 14,3 11,5 - - 11 6 WSW 1016,8 75 0 0,0
02.08.2020 22:00:00 15,5 11,3 - - 18 10 WSW 1016,7 75 0 0,0
02.08.2020 21:00:00 15,6 10,7 - - 13 7 WSW 1016,2 75 0 0,0
02.08.2020 20:00:00 16,6 10,1 - - 13 7 SW 1016,2 75 0 0,0
02.08.2020 19:00:00 17,3 9,5 - - 18 10 WSW 1016,1 75 6 0,0
02.08.2020 18:00:00 18,7 10,1 - - 21 11 WSW 1016,2 75 18 0,0
02.08.2020 17:00:00 18,7 10,0 - - 18 10 SW 1016,3 75 42 0,0
02.08.2020 16:00:00 20,1 10,3 - - 24 13 WSW 1016,3 75 60 0,0
02.08.2020 15:00:00 20,6 11,3 - - 21 11 SW 1016,6 75 60 0,0
02.08.2020 14:00:00 20,2 10,6 - - 21 11 SW 1016,8 75 60 0,0
02.08.2020 13:00:00 19,7 11,9 - - 18 10 WSW 1016,9 55 60 0,0
02.08.2020 12:00:00 18,8 11,4 - - 21 11 WSW 1017,4 70 54 0,0
02.08.2020 11:00:00 18,2 12,5 - - 15 8 SW 1017,6 75 30 0,0
02.08.2020 10:00:00 17,2 11,5 18,2 16,9 18 10 SW 1017,6 75 54 0,0
02.08.2020 09:00:00 16,4 12,1 - - 15 8 WSW 1017,6 60 54 0,0
02.08.2020 08:00:00 15,7 12,9 - - - - - 1017,6 75 54 0,0
02.08.2020 07:00:00 13,1 11,5 - - 2 1 ESE 1017,4 55 24 0,0
02.08.2020 06:00:00 11,9 10,9 - - 8 4 WSW 1017,3 55 0 0,0
02.08.2020 05:00:00 12,2 10,6 - - 5 3 SW 1017,1 50 0 0,0
02.08.2020 04:00:00 10,1 9,5 - - 5 3 SW 1017,4 45 0 0,0
02.08.2020 03:00:00 10,3 8,9 - - 4 2 WSW 1017,5 40 0 0,0
02.08.2020 02:00:00 12,6 10,6 - - 9 5 W 1017,6 50 0 0,0
02.08.2020 01:00:00 12,4 9,6 - - 5 3 W 1017,8 55 - 0,0
02.08.2020 00:00:00 13,3 10,0 - - 9 5 W 1017,9 60 0 0,0
01.08.2020 23:00:00 14,5 10,0 - - 18 10 WSW 1017,9 60 0 0,0
01.08.2020 22:00:00 14,7 10,1 - - 11 6 WSW 1017,7 70 0 0,0
01.08.2020 21:00:00 15,7 10,3 - - 16 9 WSW 1017,3 70 24 0,0
01.08.2020 20:00:00 17,0 10,9 - - 18 10 WSW 1016,9 65 48 0,0
01.08.2020 19:00:00 18,3 11,4 - - 21 11 WSW 1016,8 70 48 0,0
01.08.2020 18:00:00 19,0 11,8 - - 24 13 SW 1016,7 55 48 0,0
01.08.2020 17:00:00 18,9 12,4 - - 28 15 WSW 1016,7 50 60 0,0
01.08.2020 16:00:00 20,2 13,5 - - 22 12 WSW 1016,7 75 60 0,0
01.08.2020 15:00:00 20,1 12,9 - - 26 14 WSW 1016,5 75 36 0,0
01.08.2020 14:00:00 19,7 13,8 - - 22 12 SW 1016,3 75 6 0,0
01.08.2020 13:00:00 19,4 13,3 - - 22 12 WSW 1016,2 75 36 0,0
01.08.2020 12:00:00 19,2 13,8 - - 24 13 WSW 1016,1 75 54 0,0
01.08.2020 11:00:00 17,1 14,5 - - 21 11 WSW 1016,2 60 0 0,4
01.08.2020 10:00:00 18,3 14,3 18,7 16,7 21 11 WSW 1015,5 55 24 0,0
01.08.2020 09:00:00 18,4 14,7 - - 16 9 WSW 1015,1 45 48 0,0
01.08.2020 08:00:00 17,4 14,9 - - 15 8 SW 1014,8 40 12 0,0
01.08.2020 07:00:00 16,4 14,0 - - 9 5 SSW 1014,8 45 0 0,0
01.08.2020 06:00:00 15,7 13,8 - - 5 3 SSW 1014,7 45 0 0,0
01.08.2020 05:00:00 15,5 13,7 - - 9 5 S 1014,3 40 0 0,0
01.08.2020 04:00:00 16,6 14,5 - - 11 6 SW 1014,2 40 0 0,0
01.08.2020 03:00:00 16,3 14,5 - - 13 7 SW 1014,2 35 0 0,0
01.08.2020 02:00:00 16,2 14,6 - - 9 5 SW 1014,3 35 0 0,0
01.08.2020 01:00:00 15,8 14,2 - - 11 6 W 1014,2 35 - 0,0
01.08.2020 00:00:00 16,4 14,6 - - 16 9 WSW 1013,6 35 0 0,0
31.07.2020 23:00:00 16,9 14,1 - - 26 14 WSW 1013,2 40 0 0,0
31.07.2020 22:00:00 17,9 15,2 - - 18 10 SW 1012,8 40 0 0,0
31.07.2020 21:00:00 18,6 16,7 - - 18 10 SW 1012,2 50 0 0,0
31.07.2020 20:00:00 19,4 17,5 - - 15 8 WSW 1011,7 60 0 0,0
31.07.2020 19:00:00 20,3 17,3 - - 21 11 WSW 1011,1 60 0 0,0
31.07.2020 18:00:00 21,0 16,7 - - 22 12 WSW 1010,6 70 0 0,0
31.07.2020 17:00:00 22,2 15,4 - - 22 12 WSW 1010,0 50 0 0,0
31.07.2020 16:00:00 24,3 16,5 - - 24 13 WSW 1009,5 40 30 0,0
31.07.2020 15:00:00 29,2 16,9 - - 18 10 W 1008,5 50 60 0,0
31.07.2020 14:00:00 30,7 16,0 - - 16 9 SSW 1008,6 50 60 0,0
31.07.2020 13:00:00 30,6 15,1 - - 13 7 SE 1008,7 60 60 0,0
31.07.2020 12:00:00 29,4 14,4 - - 13 7 SSE 1008,9 55 60 0,0
31.07.2020 11:00:00 27,5 13,8 - - 16 9 SE 1009,1 60 60 0,0
31.07.2020 10:00:00 25,6 12,3 18,2 16,7 16 9 SE 1009,6 60 60 0,0
31.07.2020 09:00:00 24,1 11,8 - - 8 4 ESE 1009,9 70 60 0,0
31.07.2020 08:00:00 21,4 12,2 - - 9 5 E 1010,0 60 60 0,0
31.07.2020 07:00:00 19,0 11,4 - - 11 6 E 1010,4 65 42 0,0
31.07.2020 06:00:00 17,9 10,9 - - 13 7 E 1010,9 60 0 0,0
31.07.2020 05:00:00 17,5 10,8 - - 13 7 E 1011,3 70 0 0,0
31.07.2020 04:00:00 16,6 10,4 - - 8 4 E 1011,8 60 0 0,0
31.07.2020 03:00:00 16,4 10,2 - - 8 4 E 1012,6 65 0 0,0
31.07.2020 02:00:00 17,3 10,3 - - 9 5 E 1013,4 70 0 0,0
31.07.2020 01:00:00 17,9 10,4 - - 11 6 E 1014,2 50 - 0,0
31.07.2020 00:00:00 18,2 10,8 - - 8 4 ESE 1014,5 60 0 0,0
30.07.2020 23:00:00 18,9 10,7 - - 8 4 E 1014,5 70 0 0,0
30.07.2020 22:00:00 20,4 10,3 - - 5 3 E 1014,5 70 0 0,0
30.07.2020 21:00:00 23,2 9,2 - - 5 3 ESE 1014,3 75 42 0,0
30.07.2020 20:00:00 24,9 8,6 - - 13 7 SE 1014,3 75 60 0,0
30.07.2020 19:00:00 25,8 8,1 - - 13 7 ESE 1014,6 75 60 0,0
30.07.2020 18:00:00 26,3 8,1 - - 11 6 SSE 1015,0 75 60 0,0
30.07.2020 17:00:00 26,6 8,0 - - 9 5 SSE 1015,5 75 60 0,0
30.07.2020 16:00:00 26,5 9,1 - - 11 6 SSE 1016,1 75 60 0,0
30.07.2020 15:00:00 26,0 10,7 - - 9 5 SE 1016,6 75 60 0,0
30.07.2020 14:00:00 24,7 10,6 - - 11 6 S 1016,9 75 60 0,0
30.07.2020 13:00:00 23,8 10,6 - - 11 6 SE 1017,6 75 60 0,0
30.07.2020 12:00:00 22,2 11,0 - - 8 4 SSE 1018,1 70 60 0,0
30.07.2020 11:00:00 20,2 10,9 - - 9 5 SSE 1018,5 75 60 0,0
30.07.2020 10:00:00 19,0 11,9 17,7 16,9 9 5 SSE 1018,6 75 60 0,0
30.07.2020 09:00:00 17,1 11,5 - - 11 6 SSE 1018,7 75 60 0,0
30.07.2020 08:00:00 15,9 11,5 - - 9 5 SSE 1018,7 75 60 0,0
30.07.2020 07:00:00 13,7 11,8 - - 8 4 E 1018,8 45 12 0,0
30.07.2020 06:00:00 12,6 11,2 - - 5 3 E 1018,6 40 0 0,0
30.07.2020 05:00:00 12,6 11,0 - - 4 2 E 1018,9 50 0 0,0
30.07.2020 04:00:00 13,1 11,6 - - 4 2 E 1018,9 60 0 0,0
30.07.2020 03:00:00 12,9 10,2 - - 4 2 ESE 1019,3 70 0 0,0
30.07.2020 02:00:00 14,0 10,5 - - 5 3 S 1019,5 75 0 0,0

tt = temperature
td = dewpoint
tt -20cm = temperature -20cm
tt -100cm = temperature -100cm
ff = wind speed
dd = wind direction
ppp = reduced air pressure
vv = visibility
sd = sunshine duration
rr = precipitation

Next stations